| time (UTC) | temp C | wind direction | speed KPH | gust KPH | rain 1hr cm | rain 24hr cm | rain mn cm | humidity % | barometer mb |
| 20260506163705 | 12 | 115 | 20.9 | 27.4 | 0.00 | 0.00 | 0.00 | 45 | 1009.2 |
| 20260506162704 | 12 | 111 | 22.5 | 27.4 | 0.00 | 0.00 | 0.00 | 44 | 1009.1 |
| 20260506161708 | 12 | 121 | 25.7 | 29.0 | 0.00 | 0.00 | 0.00 | 45 | 1009.0 |
| 20260506161204 | 12 | 130 | 14.5 | 29.0 | 0.00 | 0.00 | 0.00 | 46 | 1009.1 |
| 20260506160204 | 12 | 131 | 19.3 | 27.4 | 0.00 | 0.00 | 0.00 | 46 | 1009.1 |
| 20260506155204 | 12 | 111 | 11.3 | 24.1 | 0.00 | 0.00 | 0.00 | 47 | 1009.0 |
| 20260506154704 | 12 | 115 | 16.1 | 22.5 | 0.00 | 0.00 | 0.00 | 46 | 1009.0 |
| 20260506152205 | 12 | 115 | 17.7 | 22.5 | 0.00 | 0.00 | 0.00 | 47 | 1009.1 |
| 20260506151704 | 12 | 117 | 12.9 | 20.9 | 0.00 | 0.00 | 0.00 | 48 | 1009.1 |
| 20260506151204 | 12 | 131 | 16.1 | 24.1 | 0.00 | 0.00 | 0.00 | 48 | 1009.1 |
| 20260506150204 | 12 | 123 | 16.1 | 24.1 | 0.00 | 0.00 | 0.00 | 47 | 1009.0 |
| 20260506145706 | 12 | 115 | 22.5 | 32.2 | 0.00 | 0.00 | 0.00 | 47 | 1009.0 |
| 20260506145204 | 12 | 123 | 20.9 | 29.0 | 0.00 | 0.00 | 0.00 | 48 | 1009.0 |
| 20260506143204 | 12 | 121 | 16.1 | 32.2 | 0.00 | 0.00 | 0.00 | 56 | 1008.8 |
| 20260506142204 | 12 | 101 | 22.5 | 29.0 | 0.00 | 0.00 | 0.00 | 60 | 1008.8 |
| 20260506140704 | 12 | 161 | 9.7 | 14.5 | 0.00 | 0.00 | 0.00 | 62 | 1008.8 |
| 20260506135204 | 12 | 7 | 19.3 | 25.7 | 0.00 | 0.00 | 0.00 | 62 | 1008.4 |
| 20260506134706 | 12 | 353 | 16.1 | 27.4 | 0.00 | 0.00 | 0.00 | 61 | 1008.4 |
| 20260506133704 | 13 | 8 | 14.5 | 22.5 | 0.00 | 0.00 | 0.00 | 60 | 1008.4 |
| 20260506133205 | 13 | 7 | 19.3 | 29.0 | 0.00 | 0.00 | 0.00 | 61 | 1008.4 |
| 20260506132704 | 13 | 349 | 22.5 | 29.0 | 0.00 | 0.00 | 0.00 | 62 | 1008.4 |
| 20260506132204 | 12 | 339 | 24.1 | 29.0 | 0.00 | 0.00 | 0.00 | 61 | 1008.3 |
| 20260506131704 | 12 | 337 | 17.7 | 29.0 | 0.00 | 0.00 | 0.00 | 62 | 1008.3 |
| 20260506131204 | 12 | 355 | 20.9 | 29.0 | 0.00 | 0.00 | 0.00 | 61 | 1008.3 |
| 20260506125204 | 13 | 337 | 20.9 | 32.2 | 0.00 | 0.00 | 0.00 | 59 | 1008.2 |
| 20260506124704 | 13 | 344 | 22.5 | 38.6 | 0.00 | 0.00 | 0.00 | 59 | 1008.1 |
| 20260506124204 | 13 | 334 | 22.5 | 29.0 | 0.00 | 0.00 | 0.00 | 61 | 1008.1 |
| 20260506123704 | 13 | 349 | 29.0 | 38.6 | 0.00 | 0.00 | 0.00 | 58 | 1008.2 |
| 20260506121204 | 13 | 329 | 20.9 | 37.0 | 0.00 | 0.00 | 0.00 | 58 | 1008.1 |
| 20260506115706 | 13 | 324 | 27.4 | 33.8 | 0.00 | 0.00 | 0.00 | 58 | 1008.1 |
| 20260506114705 | 13 | 335 | 22.5 | 35.4 | 0.00 | 0.00 | 0.00 | 58 | 1008.1 |
| 20260506114206 | 13 | 337 | 29.0 | 37.0 | 0.00 | 0.00 | 0.00 | 58 | 1008.1 |
| 20260506112206 | 13 | 335 | 27.4 | 35.4 | 0.00 | 0.00 | 0.00 | 59 | 1008.1 |
| 20260506111205 | 13 | 335 | 20.9 | 32.2 | 0.00 | 0.00 | 0.00 | 55 | 1008.2 |
| 20260506105207 | 13 | 337 | 22.5 | 37.0 | 0.00 | 0.00 | 0.00 | 54 | 1008.2 |
| 20260506104706 | 13 | 340 | 22.5 | 33.8 | 0.00 | 0.00 | 0.00 | 55 | 1008.2 |
| 20260506104205 | 13 | 342 | 19.3 | 32.2 | 0.00 | 0.00 | 0.00 | 56 | 1008.3 |
| 20260506103707 | 13 | 339 | 25.7 | 32.2 | 0.00 | 0.00 | 0.00 | 55 | 1008.3 |
| 20260506103206 | 13 | 342 | 22.5 | 32.2 | 0.00 | 0.00 | 0.00 | 55 | 1008.3 |
| 20260506102206 | 13 | 339 | 22.5 | 29.0 | 0.00 | 0.00 | 0.00 | 57 | 1008.3 |
| 20260506100706 | 13 | 335 | 16.1 | 32.2 | 0.00 | 0.00 | 0.00 | 57 | 1008.2 |
| 20260506100206 | 13 | 327 | 16.1 | 29.0 | 0.00 | 0.00 | 0.00 | 56 | 1008.3 |
| 20260506095206 | 13 | 346 | 25.7 | 29.0 | 0.00 | 0.00 | 0.00 | 54 | 1008.3 |
| 20260506094706 | 13 | 333 | 19.3 | 25.7 | 0.00 | 0.00 | 0.00 | 56 | 1008.3 |
| 20260506094207 | 13 | 344 | 20.9 | 25.7 | 0.00 | 0.00 | 0.00 | 54 | 1008.3 |
| 20260506093206 | 13 | 322 | 20.9 | 32.2 | 0.00 | 0.00 | 0.00 | 52 | 1008.3 |
| 20260506092707 | 13 | 329 | 19.3 | 25.7 | 0.00 | 0.00 | 0.00 | 49 | 1008.3 |
| 20260506092206 | 13 | 347 | 25.7 | 27.4 | 0.00 | 0.00 | 0.00 | 47 | 1008.3 |
| 20260506091705 | 13 | 326 | 19.3 | 24.1 | 0.00 | 0.00 | 0.00 | 50 | 1008.3 |
| 20260506091206 | 13 | 340 | 16.1 | 25.7 | 0.00 | 0.00 | 0.00 | 47 | 1008.3 |
| 20260506085705 | 13 | 4 | 19.3 | 24.1 | 0.00 | 0.00 | 0.00 | 46 | 1008.4 |
| 20260506085206 | 13 | 330 | 12.9 | 25.7 | 0.00 | 0.00 | 0.00 | 48 | 1008.4 |
| 20260506084205 | 13 | 0 | 16.1 | 22.5 | 0.00 | 0.00 | 0.00 | 44 | 1008.4 |
| 20260506083706 | 13 | 3 | 20.9 | 24.1 | 0.00 | 0.00 | 0.00 | 43 | 1008.4 |
| 20260506083205 | 13 | 29 | 12.9 | 22.5 | 0.00 | 0.00 | 0.00 | 46 | 1008.4 |
| 20260506082707 | 13 | 6 | 9.7 | 12.9 | 0.00 | 0.00 | 0.00 | 46 | 1008.4 |
| 20260506082205 | 12 | 354 | 9.7 | 20.9 | 0.00 | 0.00 | 0.00 | 46 | 1008.3 |
| 20260506081705 | 13 | 349 | 19.3 | 24.1 | 0.00 | 0.00 | 0.00 | 46 | 1008.3 |
| 20260506081205 | 13 | 352 | 14.5 | 22.5 | 0.00 | 0.00 | 0.00 | 49 | 1008.3 |
| 20260506080706 | 12 | 356 | 11.3 | 22.5 | 0.00 | 0.00 | 0.00 | 47 | 1008.3 |
| 20260506073205 | 12 | 21 | 8.0 | 12.9 | 0.00 | 0.00 | 0.00 | 51 | 1008.3 |
| 20260506071706 | 12 | 28 | 9.7 | 12.9 | 0.00 | 0.00 | 0.00 | 51 | 1008.3 |
| 20260506071205 | 11 | 21 | 8.0 | 12.9 | 0.00 | 0.00 | 0.00 | 51 | 1008.3 |
| 20260506070205 | 11 | 13 | 9.7 | 12.9 | 0.00 | 0.00 | 0.00 | 52 | 1008.4 |
| 20260506062206 | 10 | 30 | 9.7 | 12.9 | 0.00 | 0.00 | 0.00 | 55 | 1008.4 |
| 20260506061706 | 10 | 40 | 8.0 | 12.9 | 0.00 | 0.00 | 0.00 | 55 | 1008.5 |
| 20260506050205 | 6 | 17 | 4.8 | 8.0 | 0.00 | 0.00 | 0.00 | 62 | 1008.7 |
| 20260506044205 | 5 | 12 | 4.8 | 8.0 | 0.00 | 0.00 | 0.00 | 66 | 1008.7 |
| 20260506043705 | 5 | 9 | 3.2 | 8.0 | 0.00 | 0.00 | 0.00 | 67 | 1008.7 |
| 20260506042705 | 4 | 4 | 4.8 | 8.0 | 0.00 | 0.00 | 0.00 | 70 | 1008.7 |
| 20260506041205 | 3 | 7 | 4.8 | 4.8 | 0.00 | 0.00 | 0.00 | 72 | 1008.8 |
| 20260506040206 | 3 | 7 | 1.6 | 4.8 | 0.00 | 0.00 | 0.00 | 73 | 1008.8 |
| 20260506035206 | 3 | 7 | 3.2 | 4.8 | 0.00 | 0.00 | 0.00 | 73 | 1008.7 |
| 20260506034705 | 3 | 7 | 4.8 | 4.8 | 0.00 | 0.00 | 0.00 | 73 | 1008.7 |
| 20260506034205 | 3 | 7 | 4.8 | 8.0 | 0.00 | 0.00 | 0.00 | 72 | 1008.7 |
| 20260506033706 | 3 | 7 | 4.8 | 8.0 | 0.00 | 0.00 | 0.00 | 72 | 1008.7 |
| 20260506031705 | 3 | 5 | 8.0 | 9.7 | 0.00 | 0.00 | 0.00 | 73 | 1008.8 |
| 20260506030205 | 3 | 17 | 6.4 | 8.0 | 0.00 | 0.00 | 0.00 | 75 | 1009.0 |
| 20260506025705 | 4 | 18 | 4.8 | 8.0 | 0.00 | 0.00 | 0.00 | 75 | 1009.0 |
| 20260506025205 | 4 | 12 | 6.4 | 8.0 | 0.00 | 0.00 | 0.00 | 75 | 1009.0 |
| 20260506023205 | 4 | 12 | 8.0 | 9.7 | 0.00 | 0.00 | 0.00 | 77 | 1009.1 |
| 20260506022704 | 4 | 15 | 8.0 | 8.0 | 0.00 | 0.00 | 0.00 | 78 | 1009.2 |
| 20260506022205 | 4 | 15 | 8.0 | 8.0 | 0.00 | 0.00 | 0.00 | 78 | 1009.2 |
| 20260506021705 | 4 | 17 | 8.0 | 9.7 | 0.00 | 0.00 | 0.00 | 79 | 1009.2 |
| 20260506021205 | 4 | 19 | 8.0 | 9.7 | 0.00 | 0.00 | 0.00 | 80 | 1009.3 |
| 20260506020205 | 4 | 19 | 8.0 | 8.0 | 0.00 | 0.00 | 0.00 | 80 | 1009.3 |
| 20260506015205 | 5 | 19 | 4.8 | 4.8 | 0.00 | 0.00 | 0.00 | 80 | 1009.4 |
| 20260506012205 | 5 | 20 | 0.0 | 0.0 | 0.00 | 0.00 | 0.00 | 79 | 1009.3 |
| 20260506011706 | 5 | 20 | 0.0 | 0.0 | 0.00 | 0.00 | 0.00 | 78 | 1009.3 |
| 20260506010207 | 6 | 20 | 1.6 | 3.2 | 0.00 | 0.00 | 0.00 | 77 | 1009.2 |
| 20260506005706 | 6 | 20 | 1.6 | 4.8 | 0.00 | 0.00 | 0.00 | 77 | 1009.1 |
| 20260506005205 | 6 | 20 | 4.8 | 9.7 | 0.00 | 0.00 | 0.00 | 77 | 1009.1 |
| 20260506004705 | 6 | 16 | 8.0 | 9.7 | 0.00 | 0.00 | 0.00 | 77 | 1009.1 |
| 20260506003205 | 6 | 14 | 14.5 | 16.1 | 0.00 | 0.00 | 0.00 | 78 | 1009.0 |
| 20260506001206 | 6 | 12 | 12.9 | 12.9 | 0.00 | 0.00 | 0.00 | 79 | 1009.0 |
| 20260506000705 | 6 | 10 | 11.3 | 11.3 | 0.00 | 0.00 | 0.00 | 79 | 1009.0 |
| 20260506000205 | 6 | 14 | 9.7 | 9.7 | 0.00 | 0.00 | 0.00 | 78 | 1008.9 |
| 20260505235705 | 6 | 19 | 0.0 | 0.0 | 0.00 | 0.00 | 0.00 | 78 | 1009.0 |
| 20260505234705 | 6 | 19 | 6.4 | 9.7 | 0.00 | 0.00 | 0.00 | 77 | 1009.0 |
| 20260505233205 | 6 | 25 | 6.4 | 11.3 | 0.00 | 0.00 | 0.00 | 76 | 1009.1 |
| 20260505232706 | 6 | 17 | 9.7 | 12.9 | 0.00 | 0.00 | 0.00 | 76 | 1009.0 |
| 20260505232205 | 7 | 16 | 9.7 | 12.9 | 0.00 | 0.00 | 0.00 | 76 | 1009.0 |
| 20260505231206 | 7 | 13 | 11.3 | 12.9 | 0.00 | 0.00 | 0.00 | 76 | 1009.0 |
| 20260505230708 | 7 | 9 | 11.3 | 12.9 | 0.00 | 0.00 | 0.00 | 76 | 1009.0 |
| 20260505230205 | 7 | 11 | 12.9 | 12.9 | 0.00 | 0.00 | 0.00 | 76 | 1009.0 |
| 20260505225706 | 7 | 8 | 9.7 | 12.9 | 0.00 | 0.00 | 0.00 | 76 | 1009.0 |
| 20260505225205 | 7 | 14 | 11.3 | 12.9 | 0.00 | 0.00 | 0.00 | 76 | 1009.0 |
| 20260505224705 | 7 | 15 | 12.9 | 12.9 | 0.00 | 0.00 | 0.00 | 76 | 1009.0 |
| 20260505222705 | 6 | 16 | 9.7 | 12.9 | 0.00 | 0.00 | 0.00 | 76 | 1009.1 |
| 20260505222205 | 6 | 14 | 8.0 | 11.3 | 0.00 | 0.00 | 0.00 | 75 | 1009.1 |
| 20260505220205 | 6 | 31 | 8.0 | 9.7 | 0.00 | 0.00 | 0.00 | 71 | 1009.2 |
| 20260505215206 | 7 | 27 | 8.0 | 9.7 | 0.00 | 0.00 | 0.00 | 70 | 1009.3 |
| 20260505214205 | 7 | 22 | 6.4 | 9.7 | 0.00 | 0.00 | 0.00 | 68 | 1009.4 |
| 20260505212704 | 7 | 11 | 12.9 | 12.9 | 0.00 | 0.00 | 0.00 | 67 | 1009.3 |
| 20260505211207 | 7 | 23 | 4.8 | 9.7 | 0.00 | 0.00 | 0.00 | 64 | 1009.4 |
| 20260505205205 | 7 | 14 | 12.9 | 14.5 | 0.00 | 0.00 | 0.00 | 61 | 1009.5 |
| 20260505204704 | 7 | 9 | 12.9 | 12.9 | 0.00 | 0.00 | 0.00 | 61 | 1009.5 |
| 20260505203706 | 7 | 13 | 14.5 | 20.9 | 0.00 | 0.00 | 0.00 | 60 | 1009.5 |
| 20260505202204 | 7 | 26 | 6.4 | 8.0 | 0.00 | 0.00 | 0.00 | 61 | 1009.5 |
| 20260505201704 | 7 | 26 | 4.8 | 9.7 | 0.00 | 0.00 | 0.00 | 60 | 1009.4 |
| 20260505200204 | 8 | 14 | 14.5 | 16.1 | 0.00 | 0.00 | 0.00 | 60 | 1009.5 |
| 20260505193205 | 8 | 12 | 9.7 | 11.3 | 0.00 | 0.00 | 0.00 | 61 | 1009.4 |
| 20260505192204 | 8 | 13 | 8.0 | 9.7 | 0.00 | 0.00 | 0.00 | 61 | 1009.3 |
| 20260505190206 | 10 | 22 | 6.4 | 8.0 | 0.00 | 0.00 | 0.00 | 58 | 1009.1 |
| 20260505185705 | 10 | 23 | 6.4 | 8.0 | 0.00 | 0.00 | 0.00 | 57 | 1009.1 |
| 20260505185205 | 10 | 23 | 4.8 | 4.8 | 0.00 | 0.00 | 0.00 | 56 | 1009.1 |
| 20260505184704 | 10 | 23 | 4.8 | 8.0 | 0.00 | 0.00 | 0.00 | 54 | 1009.1 |
| 20260505184204 | 10 | 21 | 8.0 | 8.0 | 0.00 | 0.00 | 0.00 | 55 | 1009.1 |
| 20260505183204 | 10 | 6 | 4.8 | 8.0 | 0.00 | 0.00 | 0.00 | 57 | 1009.2 |
| 20260505182704 | 10 | 6 | 6.4 | 9.7 | 0.00 | 0.00 | 0.00 | 57 | 1009.2 |
| 20260505182204 | 10 | 359 | 8.0 | 9.7 | 0.00 | 0.00 | 0.00 | 56 | 1009.2 |
| 20260505180704 | 11 | 0 | 9.7 | 11.3 | 0.00 | 0.00 | 0.00 | 54 | 1009.1 |
| 20260505180206 | 11 | 356 | 12.9 | 12.9 | 0.00 | 0.00 | 0.00 | 54 | 1009.1 |
| 20260505175205 | 11 | 352 | 11.3 | 12.9 | 0.00 | 0.00 | 0.00 | 52 | 1009.1 |
| 20260505174704 | 11 | 1 | 14.5 | 14.5 | 0.00 | 0.00 | 0.00 | 53 | 1009.1 |
| 20260505173706 | 11 | 352 | 11.3 | 20.9 | 0.00 | 0.00 | 0.00 | 54 | 1009.1 |
| 20260505173204 | 11 | 345 | 12.9 | 22.5 | 0.00 | 0.00 | 0.00 | 53 | 1009.2 |
| 20260505171706 | 11 | 339 | 8.0 | 20.9 | 0.00 | 0.00 | 0.00 | 51 | 1009.2 |
| 20260505171205 | 11 | 332 | 11.3 | 16.1 | 0.00 | 0.00 | 0.00 | 50 | 1009.2 |
| 20260505170704 | 11 | 0 | 9.7 | 20.9 | 0.00 | 0.00 | 0.00 | 49 | 1009.2 |
| 20260505170204 | 11 | 346 | 12.9 | 22.5 | 0.00 | 0.00 | 0.00 | 50 | 1009.2 |